User: anonymous   Login
Location: Edoum�
(0.9447°N, 10.6482°E)
Time: 15:15:54
(UTC+00:00)
Language:

Meteor PRIRODA - Orbit

View from above orbital plane
View from above orbital plane
View from above satellite
View from above satellite

Ground track
Ground track

The orbit data is extracted from the following two-line orbital elements,

1 12585U 81065A   20224.88635832 +.00000449 +00000-0 +22970-4 0  9995
2 12585 097.5506 213.6548 0013680 341.9399 018.1348 15.21754229131536
Epoch (UTC): 11 August 2020 21:16:21
Eccentricity: 0.0013680
inclination: 97.5506°
perigee height: 491 km
apogee height: 510 km
right ascension of ascending node: 213.6548°
argument of perigee: 341.9399°
revolutions per day: 15.21754229
mean anomaly at epoch: 18.1348°
orbit number at epoch: 13153

The dashed part of the orbit path shows where the satellite is in the earth's shadow,  

DLR